Погода в Норт-Бей

Канада     46°18′45″N   79°27′57″W
темп.,
°C
ветер,
м/с
пор.,
м/с
влажн.,
%
обл.,
%
осадки,
мм/ч
давл.,
гПа
погр.,
м
20 сентября, пн
пн2023:00+15ю35610 0.0 1022137
02:00+14ююв48600 0.0 1022196
05:00+13ю48630 0.0 1022231
08:00+13ююв37610 0.0 1022226
11:00+19ю4745100 0.0 1022504
14:00+22ю474598 0.0 1020409
17:00+23ююв3654100 0.0 1019228
20:00+20ююв51161100 0.0 1019310
21 сентября, вт
вт2123:00+20ю61461100 0.0 1018494
02:00+20ю61569100 0.0 1017493
05:00+20ю71686100 0.7 1016542
08:00+19ю9178583 1.6 1016675
11:00+20ю8168189 0.2 1016735
14:00+21ююз8147677 0.5 1015688
17:00+20юз61289100 1.8 1015539
20:00+19ююз3794100 6.4 1015371
22 сентября, ср
ср2223:00+19ююз2497100 7.2 1014273
02:00+17вюв0597100 30.9 1012383
05:00+10с81094100 16.8 1014479
08:00+9с71293100 25.1 1016670
11:00+8с71293100 7.2 1016664
14:00+8ссв81392100 12.9 1016802
17:00+8с91492100 3.6 1016826
20:00+8ссв91592100 7.9 1017853
23 сентября, чт
чт2323:00+7ссв91593100 7.9 1015870
02:00+7с101793100 13.6 1014854
05:00+7с101793100 4.2 10111001
08:00+6с91694100 11.0 10111186
11:00+6с71293100 2.5 10111069
14:00+7ссз6993100 5.5 1011856
17:00+6сз6893100 1.9 1012809
20:00+6зсз6797100 3.8 1013799
24 сентября, пт
пт2423:00+6з6798100 1.8 1013784
02:00+6зсз7898100 3.4 1014781
05:00+6з7998100 1.3 1014867
08:00+7з71092100 2.0 1015869
11:00+9з67740 0.1 1017681
14:00+14зюз69500 0.1 10151018
17:00+17юз7116721 0.0 10141159
20:00+15ююз8158154 0.0 1014848